Atlantic - Newfoundland: Past 24 Hour Conditions

 

Stephenville Airport

01:30 PM NDT 30 October 2014
This table is a summary of hourly weather conditions for the past 24 hours.
Date / Time
(NDT)
Wind(knots) Conditions Visibility(km) Pressure(kPa) Air tempC) Relative humidity(%) Dew pointC)
30 October 2014
13:30 WSW 15 Mostly Cloudy 13 100.4 10 93 8
12:30 SW 13 Mist 4 100.4 10 97 9
11:30 SW 11 gust 17 Light Rainshower 2 100.3 9 98 9
10:30 WSW 10 Mist 2 100.3 9 98 9
9:30 WSW 11 Light Drizzle 0.8 100.2 10 98 10
8:30 WSW 13 Light Drizzle 13 100.1 12 92 11
7:30 W 5 Mostly Cloudy 24 100.1 14 91 12
6:30 S 13 Mostly Cloudy 24 100.2 12 94 11
5:30 S 14 Light Rainshower 24 100.2 12 93 11
4:30 S 14 Mostly Cloudy 24 100.3 12 94 11
3:30 S 11 Mostly Cloudy 24 100.4 12 86 9
2:30 S 13 gust 19 Cloudy 24 100.5 11 84 9
1:30 S 14 Cloudy 24 100.6 11 81 8
0:30 ESE 5 Mostly Cloudy 24 100.7 12 78 8
29 October 2014
23:30 SSE 14 Mostly Cloudy 24 100.8 10 82 7
22:30 SE 10 Cloudy 24 101.0 10 81 7
21:30 E 6 Mostly Cloudy 24 101.2 8 93 7
20:30 ESE 9 Light Drizzle 24 101.2 7 89 6
19:30 E 6 Light Drizzle 24 101.4 8 80 4
18:30 SE 8 Mostly Cloudy 24 101.5 8 76 4
17:30 ESE 8 Mostly Cloudy 24 101.5 8 75 4
16:30 ESE 6 Mostly Cloudy 24 101.6 8 73 3
15:30 SE 6 Mostly Cloudy 24 101.6 7 74 3
14:30 ESE 4 Mostly Cloudy 24 101.7 6 75 2
13:30 ESE 5 Mostly Cloudy 24 101.8 6 76 2
 
Map of Atlantic - Newfoundland marine weather areas Southwestern Grand Banks - 44138 Banquereau - 44139 Tail of the Bank - 44140 Nickerson Bank - 44251 Northeast Burgeo Bank - 44255 Blanc-Sablon Airport Cap Whittle Chevery Natashquan Airport Heath Point Miscou Island Grand Étang Ingonish Beach North Mountain St.Paul Island J.A. Douglas McCurdy Sydney Airport Charlottetown Airport East Point North Cape Argentia Bonavista Burgeo Cape Race Corner Brook Daniel's Harbour Englee Ferolle Point La Scie Port aux Basques Rocky Harbour Sagona Island St. Anthony Airport St. John's Int'l Airport St. Lawrence Stephenville Airport Twillingate Winterland Wreckhouse Cartwright Airport Mary's Harbour Grates Cove Pool's Island Marticot Island Long Pond Îles de la Madeleine Airport
Legend: buoyBuoy land stationLand Station